Regional Weather Roundup
Issued by NWS Sterling, VA

Home | Current Version | Previous Version | Text Only | Print | Product List | Glossary Off
Versions: 1 2 3 4 5 6 7 8 9 10 11 12 13 14 15 16 17 18 19 20 21 22 23 24 25 26 27 28 29 30 31 32 33 34 35 36 37 38 39 40 41 42 43 44 45 46 47 48 49 50

000
ASUS41 KLWX 181810
RWRLWX

REGIONAL WEATHER ROUNDUP
NATIONAL WEATHER SERVICE BALTIMORE MD/WASHINGTON DC
100 PM EST SAT FEB 18 2017

Note: "FAIR" indicates few or no clouds below 12,000 feet
with no significant weather and/or obstructions to visibility.
 TC=TEMPERATURE CELSIUS

 * =Non NWS site. Station does not report precipitation (e.g. rain,
    snow, etc.), thunder, or fog.

DCZ001-MDZ009-015-VAZ040>042-051-053>054-181900-
WASHINGTON METRO

CITY           SKY/WX    TMP DP  RH WIND       PRES   REMARKS
WASHINGTON NAT CLOUDY    57  33  40 S10       29.81F
DULLES         CLOUDY    66  31  27 S7        29.80F
ANDREWS AFB    CLOUDY    66  31  27 S10       29.79F
FT BELVOIR     CLOUDY    64  32  29 S6        29.80F
QUANTICO       PTSUNNY   56  35  45 SW7       29.82F
COLLEGE PARK*  CLOUDY    61  32  33 S5        29.79F
LEESBURG*      CLOUDY    70  36  28 S8        29.80F
MANASSAS*      CLOUDY    67  33  28 SW9       29.80F
GAITHERSBURG*  MOSUNNY   66  32  28 SW5       29.82F

$$

MDZ006>007-011-014-181900-
BALTIMORE METRO

CITY           SKY/WX    TMP DP  RH WIND       PRES   REMARKS
BWI AIRPORT    CLOUDY    68  31  25 W10       29.78F
MD SCIENCE CTR   N/A     56  34  43 MISG      29.79F
MARTIN STATE   MOSUNNY   52  37  58 E6        29.81F
ANNAPOLIS      CLOUDY    46  37  71 SE10      29.80F
FORT MEADE*    PTSUNNY   68  32  26 W6        29.80F

$$

MDZ012-015-019>023-181900-
MARYLAND EASTERN SHORE

CITY           SKY/WX    TMP DP  RH WIND       PRES   REMARKS
OCEAN CITY     SUNNY     56  41  57 S7        29.84F
SALISBURY      SUNNY     67  37  33 SW8       29.83F
BAY BRIDGE AP* CLOUDY    57  36  44 SE10      29.80F
CAMBRIDGE*     CLOUDY    63  37  39 S7        29.81F

$$

MDZ017>025-181900-
SOUTHERN MARYLAND

CITY           SKY/WX    TMP DP  RH WIND       PRES   REMARKS
PATUXENT RIVER CLOUDY    52  42  69 SE3       29.83F
ST INIGOES     CLOUDY    58  39  49 SE5       29.84F
LEONARDTOWN*   CLOUDY    61  32  33 SW8       29.83F

$$

MDZ003>005-181900-
NORTH CENTRAL MARYLAND

CITY           SKY/WX    TMP DP  RH WIND       PRES   REMARKS
FREDERICK*     SUNNY     66  36  32 SW12G17   29.81F
HAGERSTOWN APT CLOUDY    67  33  28 S8        29.75F
WESTMINSTER*   CLOUDY    64  34  32 SW16G25   29.77F

$$

MDZ501>502-181900-
WESTERN MARYLAND

CITY           SKY/WX    TMP DP  RH WIND       PRES   REMARKS
OAKLAND*       CLOUDY    54  30  40 SW15G23   29.81F
CUMBERLAND*    MOSUNNY   72  30  21 SW14      29.80F

$$

VAZ025>031-181900-
SHENANDOAH VALLEY

CITY           SKY/WX    TMP DP  RH WIND       PRES   REMARKS
WINCHESTER*    SUNNY     64  32  29 S13       29.79F
FRONT ROYAL*   PTSUNNY   68  32  26 SW9       29.78F
LURAY*         SUNNY     64  34  32 SW12      29.81F
NEW MARKET*    SUNNY     64  29  27 S9        29.82F
STAUNTON*      MOSUNNY   64  31  30 S9        29.85F
WAYNESBORO*    SUNNY     65  27  24 SW9       29.86F

$$

WVZ021-048>050-054>055-181900-
EASTERN WEST VIRGINIA PANHANDLE

CITY           SKY/WX    TMP DP  RH WIND       PRES   REMARKS
MARTINSBURG    CLOUDY    68  30  24 SW10G18   29.77F
PETERSBURG*    MOSUNNY   67  31  26 SW6       29.80F

$$

VAZ036>039-050-181900-
CENTRAL FOOTHILLS

CITY           SKY/WX    TMP DP  RH WIND       PRES   REMARKS
CHARLOTTESVILL SUNNY     70  28  21 S8        29.82F
CULPEPER*      SUNNY     70  33  25 SW8       29.82F
ORANGE*        SUNNY     68  32  26 SW7       29.83F
GORDONSVILLE*  SUNNY     70  32  25 S6        29.81F
WARRENTON*     MOSUNNY   69  25  18 SW7       29.80F

$$

VAZ055>057-181900-
NORTH AND CENTRAL PIEDMONT

CITY           SKY/WX    TMP DP  RH WIND       PRES   REMARKS
FREDERICKSBRG* SUNNY     67  37  32 SW6       29.82F
STAFFORD*      CLOUDY    68  32  26 SW5       29.86F

$$

NCZ024-NYZ072-PAZ021-071-VAZ022-071-181900-
OTHER REGIONAL OBSERVATIONS

CITY           SKY/WX    TMP DP  RH WIND       PRES   REMARKS
NEW YORK CITY  SUNNY     55  29  36 W8        29.74F
PHILADELPHIA   MOSUNNY   61  31  32 SW16      29.76F
PITTSBURGH     PTSUNNY   62  32  32 SW13G20   29.76F
ROANOKE        PTSUNNY   68  31  25 W9        29.89F
RICHMOND       PTSUNNY   70  34  26 SW8       29.85F
RALEIGH        MOSUNNY   71  27  19 VRB7      29.90F

$$

ANZ530>537-181900-
MARINE OBSERVATIONS

STATION/POSITION TIME  TEMP    WIND        PRES
                       AIR SEA DIR/SP/G
                 (UTC) (F)     (DEG/KT/KT) (MB)
THOMAS PT LIGHT  1800   43 39  170/ 14/ 15   N/A
BALT KEY BRIDGE  1748   47     140/  4/  5 1008.7F
COVE POINT       1748   42     180/ 12/ 12 1010.7F
LEWISETTA        1748   44 41   80/  4/  5 1010.2F
SOLOMONS ISLAND  1748   45 42   80/  8/  9   N/A
PINEY POINT      1748          170/  5/  5   N/A

$$




USA.gov is the U.S. government's official web portal to all federal, state and local government web resources and services.